Location: Lango�lan
(48.1202°N, 3.2340°W)
Time: 09:30:16
(UTC+00:00)

Cosmos 1140 Rocket - Pass Details

Date: 23 October 2019
Orbit: 745 x 766 km, 74.1° (Epoch: 21 November)

Event Time Altitude Azimuth Distance (km) Brightness Sun altitude
Exits shadow 04:57:31 33° 249° (WSW) 1,262 4.1 -18.4°
Maximum altitude 04:59:23 47° 299° (WNW) 1,000 3.7 -18.0°
Drops below altitude 10° 05:04:21 10° 13° (NNE) 2,279 6.1 -17.2°
Sets 05:06:49 0° 19° (NNE) 3,205 7.0 -16.8°
